Marshalltown, IA

12:24 AM CST on December 12, 2017 (GMT -0600)
Marshalltown Municipal

Weather History for KMIW - April, 2014

Change the Weather History Date:

Sunday, April 27, 2014

  Actual Average Record
Temperature  
Mean Temperature 52 °F 53 °F  
Max Temperature 63 °F 65 °F 79 °F (2001)
Min Temperature 41 °F 41 °F 30 °F (2004)
Degree Days  
Heating Degree Days 13 12  
Month to date heating degree days 475 449  
Since 1 July heating degree days 7675 6750  
Cooling Degree Days 0 0  
Month to date cooling degree days 5 0  
Year to date cooling degree days 5 0  
Growing Degree Days 2 (Base 50)    
Moisture  
Dew Point 46 °F    
Average Humidity 77    
Maximum Humidity 93    
Minimum Humidity 60    
Precipitation  
Precipitation 0.91 in 0.15 in 1.05 in (2002)
Month to date precipitation 5.98 2.93  
Sea Level Pressure  
Sea Level Pressure 29.61 in    
Wind  
Wind Speed 24 mph (East)    
Max Wind Speed 38 mph    
Max Gust Speed 44 mph    
Visibility 8 miles    
Events Fog , Rain , Thunderstorm    
T = Trace of Precipitation, MM = Missing Value Source: NWS Daily Summary

Daily Weather History Graph

Daily Weather History Graph

Search for Another Location

Airport or City:

Trip Planner

Search our weather history database for the weather conditions in past years. The results will help you decide how hot, cold, wet, or windy it might be!

Date:

Astronomy

Apr. 27, 2014 Rise Set
Actual Time 6:12 AM CDT 8:06 PM CDT
Civil Twilight 5:42 AM CDT 8:36 PM CDT
Nautical Twilight 5:06 AM CDT 9:13 PM CDT
Astronomical Twilight 4:26 AM CDT 9:53 PM CDT
Moon 5:15 AM CDT (4/27) 6:39 PM CDT (4/27)
Length of Visible Light 14h 53m
Length of Day
13h 53m
Waning Crescent, 3% of the Moon is Illuminated
Apr 27
Waning Crescent
Apr 29
New
May 6
First Quarter
May 14
Full
May 21
Last Quarter

Hourly Weather History & Observations

Time (CDT) Temp. Windchill Dew Point Humidity Pressure Visibility Wind Dir Wind Speed Gust Speed Precip Events Conditions
12:48 AM 48.2 °F - 37.4 °F 66% 29.82 in 10.0 mi East 24.2 mph - 0.00 in Rain , Thunderstorm Light Rain
12:53 AM 46.9 °F - 37.9 °F 71% 29.83 in 3.0 mi East 19.6 mph 31.1 mph 0.00 in Rain , Thunderstorm Light Thunderstorms and Rain
1:00 AM 46.0 °F 38.0 °F 39.0 °F 76% 29.81 in 2.5 mi East 21.9 mph 28.8 mph 0.04 in Rain , Thunderstorm Thunderstorms and Rain
1:08 AM 45.0 °F 36.2 °F 37.9 °F 76% 29.80 in 6.0 mi East 24.2 mph 33.4 mph 0.06 in Rain , Thunderstorm Thunderstorms and Rain
1:53 AM 44.1 °F 34.2 °F 36.0 °F 73% 29.77 in 10.0 mi East 28.8 mph 34.5 mph 0.07 in Rain Light Rain
2:10 AM 43.0 °F 32.0 °F 34.0 °F 71% 29.75 in 10.0 mi East 33.4 mph 41.4 mph 0.00 in Thunderstorm Overcast
2:17 AM 42.1 °F 30.6 °F 34.0 °F 73% 29.75 in 9.0 mi East 34.5 mph 44.9 mph 0.02 in Rain , Thunderstorm Light Thunderstorms and Rain
2:40 AM 42.1 °F 31.7 °F 35.1 °F 76% 29.76 in 10.0 mi East 27.6 mph 35.7 mph 0.04 in   Overcast
2:53 AM 42.1 °F 32.8 °F 35.1 °F 76% 29.77 in 10.0 mi East 21.9 mph 35.7 mph 0.04 in   Overcast
3:53 AM 42.1 °F 31.9 °F 34.0 °F 73% 29.75 in 10.0 mi East 26.5 mph 32.2 mph 0.00 in   Overcast
4:53 AM 41.0 °F 31.1 °F 35.1 °F 79% 29.75 in 10.0 mi East 23.0 mph 33.4 mph N/A   Mostly Cloudy
5:53 AM 41.0 °F 31.1 °F 36.0 °F 82% 29.73 in 10.0 mi East 23.0 mph - N/A   Scattered Clouds
6:53 AM 43.0 °F 33.5 °F 37.9 °F 82% 29.70 in 10.0 mi East 24.2 mph 34.5 mph N/A   Overcast
7:34 AM 44.1 °F 34.8 °F 39.0 °F 82% 29.68 in 10.0 mi East 25.3 mph 34.5 mph N/A Thunderstorm Overcast
7:49 AM 42.8 °F 32.3 °F 39.2 °F 87% 29.67 in 4.0 mi ESE 29.9 mph 34.5 mph 0.04 in Rain Rain
7:53 AM 43.0 °F 33.1 °F 39.0 °F 86% 29.67 in 6.0 mi East 26.5 mph 36.8 mph 0.04 in Rain , Thunderstorm Light Rain
8:01 AM 44.1 °F 34.8 °F 39.9 °F 85% 29.66 in 10.0 mi East 25.3 mph 38.0 mph 0.01 in Rain , Thunderstorm Light Thunderstorms and Rain
8:14 AM 44.1 °F 34.8 °F 39.9 °F 85% 29.66 in 10.0 mi ESE 25.3 mph 33.4 mph 0.01 in   Overcast
8:33 AM 44.1 °F 34.6 °F 39.9 °F 85% 29.66 in 6.0 mi ESE 26.5 mph 32.2 mph 0.01 in Rain , Thunderstorm Light Rain
8:43 AM 43.0 °F 32.9 °F 39.9 °F 89% 29.64 in 3.0 mi East 27.6 mph 33.4 mph 0.06 in Rain , Thunderstorm Thunderstorms and Rain
8:50 AM 42.8 °F 33.3 °F 41.0 °F 93% 29.64 in 2.0 mi East 24.2 mph - 0.11 in Rain , Thunderstorm Thunderstorms and Rain
8:53 AM 43.0 °F 34.0 °F 41.0 °F 93% 29.65 in 2.0 mi East 21.9 mph - 0.12 in Rain , Thunderstorm Thunderstorms and Rain
9:01 AM 44.1 °F 34.8 °F 41.0 °F 89% 29.63 in 5.0 mi East 25.3 mph 33.4 mph 0.01 in Rain , Thunderstorm Light Thunderstorms and Rain
9:20 AM 44.1 °F 34.4 °F 41.0 °F 89% 29.62 in 10.0 mi ESE 27.6 mph - 0.01 in Rain , Thunderstorm Light Rain
9:27 AM 45.0 °F 36.0 °F 41.0 °F 86% 29.63 in 10.0 mi East 25.3 mph - 0.01 in   Mostly Cloudy
9:53 AM 46.0 °F 38.3 °F 42.1 °F 86% 29.64 in 10.0 mi East 20.7 mph - 0.01 in   Partly Cloudy
11:53 AM 57.9 °F - 48.0 °F 70% 29.62 in 10.0 mi ESE 23.0 mph 33.4 mph N/A   Clear
12:53 PM 60.1 °F - 48.0 °F 64% 29.57 in 10.0 mi ESE 29.9 mph 35.7 mph N/A   Scattered Clouds
1:53 PM 61.0 °F - 48.9 °F 64% 29.53 in 10.0 mi East 25.3 mph 33.4 mph 0.00 in   Overcast
3:49 PM 62.6 °F - 48.2 °F 59% 29.45 in 10.0 mi East 25.3 mph 34.5 mph 0.00 in Rain , Thunderstorm Light Rain
3:53 PM 62.1 °F - 48.9 °F 62% 29.53 in 10.0 mi SE 19.6 mph 33.4 mph 0.00 in Rain , Thunderstorm Light Thunderstorms and Rain
3:58 PM 60.1 °F - 50.0 °F 69% 29.58 in 1.8 mi SW 17.3 mph 26.5 mph 0.15 in Rain , Thunderstorm Light Thunderstorms and Rain
4:06 PM 55.9 °F - 53.1 °F 90% 29.57 in 0.5 mi WSW 5.8 mph - 0.28 in Fog , Rain , Thunderstorm Heavy Thunderstorms and Rain
4:12 PM 55.9 °F - 53.1 °F 90% 29.58 in 2.0 mi West 9.2 mph - 0.31 in Rain , Thunderstorm Thunderstorms and Rain
4:18 PM 55.9 °F - 53.1 °F 90% 29.58 in 2.5 mi WNW 18.4 mph - 0.33 in Rain , Thunderstorm Rain
4:25 PM 55.0 °F - 53.1 °F 93% 29.55 in 2.5 mi North 15.0 mph - 0.35 in Rain Rain
4:29 PM 55.0 °F - 53.1 °F 93% 29.57 in 3.0 mi NW 16.1 mph - 0.35 in Rain Light Rain
4:43 PM 55.0 °F - 53.1 °F 93% 29.50 in 3.0 mi North 18.4 mph - 0.40 in Rain , Thunderstorm Thunderstorms and Rain
4:53 PM 55.0 °F - 52.0 °F 89% 29.50 in 4.0 mi NNE 17.3 mph 23.0 mph 0.42 in Rain , Thunderstorm Light Thunderstorms and Rain
5:13 PM 55.0 °F - 52.0 °F 89% 29.47 in 7.0 mi ENE 21.9 mph - 0.02 in Rain , Thunderstorm Light Rain
5:30 PM 55.0 °F - 53.1 °F 93% 29.45 in 6.0 mi ENE 17.3 mph 27.6 mph 0.03 in Rain Light Rain
5:53 PM 55.9 °F - 53.1 °F 90% 29.45 in 10.0 mi East 28.8 mph 34.5 mph 0.03 in Rain Light Rain
6:01 PM 55.0 °F - 53.1 °F 93% 29.47 in 10.0 mi East 24.2 mph 34.5 mph 0.00 in Thunderstorm Thunderstorm
6:16 PM 55.9 °F - 53.1 °F 90% 29.49 in 10.0 mi ESE 23.0 mph 35.7 mph 0.00 in   Scattered Clouds
6:53 PM 57.0 °F - 54.0 °F 89% 29.52 in 10.0 mi ESE 23.0 mph 28.8 mph 0.00 in   Scattered Clouds
7:51 PM 55.4 °F - 53.6 °F 94% 29.52 in 10.0 mi ESE 26.5 mph 34.5 mph N/A   Mostly Cloudy
7:53 PM 55.9 °F - 54.0 °F 93% 29.53 in 10.0 mi ESE 27.6 mph 34.5 mph N/A   Mostly Cloudy
8:05 PM 55.9 °F - 54.0 °F 93% 29.52 in 10.0 mi East 25.3 mph 34.5 mph N/A   Mostly Cloudy
8:14 PM 55.9 °F - 54.0 °F 93% 29.54 in 10.0 mi ESE 20.7 mph 31.1 mph N/A   Mostly Cloudy
8:53 PM 55.9 °F - 53.1 °F 90% 29.57 in 10.0 mi ESE 24.2 mph 33.4 mph N/A   Overcast
9:08 PM 55.0 °F - 53.1 °F 93% 29.56 in 10.0 mi ESE 26.5 mph - N/A   Overcast
9:43 PM 55.0 °F - 53.1 °F 93% 29.54 in 10.0 mi ESE 25.3 mph 33.4 mph N/A   Mostly Cloudy
9:53 PM 55.0 °F - 53.1 °F 93% 29.54 in 10.0 mi ESE 29.9 mph 35.7 mph N/A   Overcast
10:20 PM 54.0 °F - 51.1 °F 90% 29.53 in 10.0 mi East 27.6 mph 36.8 mph N/A   Scattered Clouds
10:46 PM 53.1 °F - 51.1 °F 93% 29.54 in 9.0 mi ESE 26.5 mph 38.0 mph 0.01 in Rain , Thunderstorm Light Thunderstorms and Rain
10:53 PM 53.1 °F - 51.1 °F 93% 29.55 in 7.0 mi ESE 26.5 mph 35.7 mph 0.01 in Rain , Thunderstorm Light Thunderstorms and Rain
11:10 PM 53.1 °F - 50.0 °F 89% 29.54 in 10.0 mi East 26.5 mph 42.6 mph 0.00 in   Overcast
11:24 PM 52.0 °F - 50.0 °F 93% 29.54 in 10.0 mi East 26.5 mph 38.0 mph 0.00 in Rain , Thunderstorm Light Rain